CAPE
0 0 0 0 0 0 0 0 0 0 21 127 504 969 1399 1391 1223 1120 2380 1308 1038 1261 1429 714 163 17 305 905 1203 1047 760 389 149 125 277 120 0 44 280 408 839 1008 1178 1021 623 494 659 426 116
0 0 0 0 0 0 0 0 0 0 290 660 246 195 77 381 910 1883 2521 1795 1299 1492 1425 931 318 97 85 338 724 644 668 526 254 356 239 264 135 68 304 338 701 1014 1014 881 735 463 246 178 125
0 0 0 0 0 2 0 0 0 0 0 25 186 0 13 269 1323 1492 2455 2034 1571 1591 1369 1449 513 351 87 60 181 480 642 688 786 1048 962 655 540 311 265 339 370 660 809 665 569 272 83 27 4
0 0 0 0 0 0 0 0 0 0 0 0 0 0 98 1951 2127 2432 2691 2377 1715 1588 1347 1620 597 365 179 18 21 110 433 766 874 954 917 748 622 418 233 329 452 807 750 604 567 331 18 0 0
0 0 0 0 0 0 0 0 0 0 0 0 0 1 367 2334 2554 2703 2683 2301 1465 1353 1321 1541 890 451 253 117 26 36 105 315 598 706 613 504 429 252 139 227 463 848 999 830 595 363 157 4 0
0 0 0 0 0 0 0 0 0 0 0 0 0 44 49 193 1355 2536 2445 2169 1649 1317 1262 1712 1176 687 387 262 116 55 77 130 230 285 329 293 212 142 158 264 431 687 934 931 827 522 133 2 0
0 0 0 0 0 0 0 0 0 0 0 0 0 0 0 0 868 2383 2342 2180 1636 1313 1193 1603 1271 1293 739 563 326 110 75 138 187 163 155 115 55 35 90 173 293 451 522 564 534 416 171 1 0
0 0 0 0 0 0 0 0 0 0 0 0 0 0 0 0 5 1135 1586 2018 1902 1690 1452 1415 1319 1280 1132 1020 635 371 143 137 151 135 179 155 119 116 101 161 160 344 499 550 513 410 214 8 0
0 0 0 0 0 0 0 0 0 0 0 0 0 0 0 0 0 84 252 822 1783 1991 1909 1772 1605 1556 1254 1088 1291 712 497 291 218 199 204 60 0 86 158 24 610 567 742 674 592 472 319 168 22
0 0 0 0 0 0 0 0 0 0 0 0 0 0 0 0 0 0 15 68 560 1455 1601 1867 2198 1826 1507 1081 1510 1153 948 481 223 195 407 128 129 164 64 185 368 495 715 774 721 617 467 268 10
0 0 0 0 0 0 0 0 0 0 0 0 0 0 0 0 0 0 0 0 0 9 123 748 2130 2481 2008 1528 1494 1328 1233 1022 980 734 730 493 478 382 136 55 257 271 281 262 201 610 641 133 49
0 0 0 0 0 0 0 0 0 0 0 0 0 0 0 0 0 0 0 0 0 0 0 290 1498 2672 2548 2069 1684 1395 1283 1359 1150 1048 944 748 708 631 463 194 251 417 412 190 152 90 64 194 245
0 0 0 0 0 0 0 0 0 0 0 0 0 0 0 0 0 0 0 0 0 0 0 56 1291 2659 2723 2499 2227 1740 1545 1309 1236 1277 1160 931 808 850 556 355 338 413 630 458 433 442 423 262 222
0 0 0 0 0 0 0 0 0 0 0 0 0 0 0 0 0 0 0 0 0 0 0 4 923 2464 2589 2883 2673 2315 1968 1796 1523 1259 1298 1250 1203 1294 1479 1377 1283 1228 895 932 659 534 609 613 586
0 0 0 0 0 0 0 0 0 0 0 0 0 0 0 0 0 0 0 0 0 0 0 99 1522 2810 2964 2830 2698 2463 2121 1685 1584 1570 1689 1576 1538 1740 1828 1321 683 64 72 300 202 281 259 381 306
0 0 0 0 0 0 0 0 0 0 0 0 0 0 0 0 0 0 0 0 0 0 0 249 304 2156 3203 2736 2702 2219 2166 1917 1911 1950 1859 1982 1863 1592 666 0 0 0 0 0 0 0 0 0 6
0 0 0 0 0 0 0 0 0 0 0 0 0 0 0 0 0 0 0 0 0 0 0 0 1070 1717 2939 2740 2722 2412 2239 2140 1951 1782 1405 610 53 63 34 0 0 0 0 0 0 0 0 0 0
0 0 0 0 0 0 0 0 0 0 0 0 0 0 0 0 0 0 0 0 0 0 0 0 1263 2214 2561 2592 2412 1980 2041 1716 676 86 42 61 1 0 0 0 0 0 0 0 0 0 0 0 0
0 0 0 0 0 0 0 0 0 0 0 0 0 0 0 0 0 0 0 0 0 0 0 416 1532 2223 2196 1896 1712 974 112 61 33 0 0 0 0 0 0 0 0 0 0 0 0 0 0 0 0
0 0 0 0 0 0 0 0 0 0 0 0 0 0 0 0 0 0 0 0 0 0 17 231 416 617 593 331 94 69 56 33 0 0 0 0 0 0 0 0 0 0 0 0 0 0 0 0 4
0 0 0 0 0 0 0 0 0 0 0 0 0 0 0 0 0 0 0 0 0 0 0 3 29 46 28 25 29 22 18 3 0 0 0 0 0 0 0 0 0 0 0 0 0 0 0 0 12
0 0 0 0 0 0 0 0 0 0 0 0 0 0 0 0 0 0 0 0 0 0 0 0 1 1 1 0 2 8 0 0 0 0 0 0 0 0 0 0 0 0 0 0 0 0 0 0 0
0 0 0 0 0 0 0 0 0 0 0 0 0 0 0 0 0 0 0 0 0 0 0 0 0 0 0 0 0 0 0 0 0 0 0 0 0 0 0 0 0 0 0 0 0 0 0 0 0
0 0 0 0 0 0 0 0 0 0 0 0 0 0 0 0 0 0 0 0 0 0 0 0 0 0 0 0 0 0 0 0 0 0 0 0 0 0 0 0 0 0 0 0 0 0 0 1 2
0 0 0 0 0 0 0 0 0 0 0 0 0 0 0 0 0 0 0 0 0 0 0 0 0 0 0 0 0 0 0 0 0 0 0 0 0 0 0 0 0 0 0 0 0 0 0 5 7
0 0 0 0 0 0 0 0 0 0 0 0 0 0 0 0 0 0 0 0 0 0 0 0 0 0 0 0 0 0 0 0 0 0 0 0 0 0 0 0 0 0 0 0 0 0 0 1 25
0 0 0 0 0 0 0 0 0 0 0 0 0 0 2 2 0 0 0 0 0 0 0 0 0 0 0 0 0 0 0 0 0 0 0 0 0 0 0 0 0 0 0 0 0 0 0 0 71
0 0 0 0 0 0 0 0 0 0 0 0 0 0 17 12 20 2 1 0 0 0 0 0 0 0 0 0 0 0 0 0 0 0 0 0 0 0 0 0 0 0 0 2 1 0 0 0 25
0 0 0 0 0 0 0 0 0 0 0 0 0 0 0 0 0 0 0 0 1 0 1 0 0 0 0 0 0 0 0 0 0 0 0 0 0 0 0 0 0 0 0 1 3 2 4 25 85
0 0 0 0 0 0 0 0 0 0 1 0 0 12 1 0 0 0 0 0 0 0 1 7 1 0 0 0 0 0 0 0 0 0 0 0 0 0 0 0 1 4 2 2 7 8 82 160 185
CIN
0 0 0 0 0 0 0 0 0 0 -31 -87 -64 -29 -26 -34 -43 -26 -95 -240 -213 -214 -256 -391 -549 -641 -433 -251 -165 -143 -198 -294 -399 -390 -277 -318 0 -314 -221 -175 -68 -23 -4 -14 -67 -80 -45 -80 -204
0 0 0 0 0 0 0 0 0 0 -60 -52 -59 -55 -81 -56 -87 -65 -42 -174 -220 -230 -250 -303 -498 -567 -545 -415 -252 -234 -221 -249 -331 -270 -287 -247 -280 -299 -212 -191 -102 -36 -26 -36 -47 -88 -135 -158 -182
0 0 0 0 0 -3 0 0 0 0 0 -91 -41 0 -133 -98 -77 -84 -79 -139 -180 -213 -223 -220 -427 -460 -553 -556 -450 -306 -233 -198 -166 -106 -110 -153 -159 -214 -221 -189 -173 -103 -54 -76 -86 -145 -229 -297 -187
0 0 0 0 0 0 0 0 0 0 0 0 0 0 -144 -103 -81 -91 -91 -118 -177 -185 -186 -227 -403 -452 -504 -622 -598 -470 -312 -177 -140 -112 -115 -139 -159 -191 -235 -195 -148 -57 -63 -77 -81 -137 -316 0 0
0 0 0 0 0 0 0 0 0 0 0 0 0 -12 -81 -72 -80 -84 -94 -116 -169 -172 -171 -203 -323 -409 -460 -518 -601 -573 -462 -339 -215 -156 -163 -184 -203 -245 -291 -231 -142 -55 -17 -39 -73 -118 -189 -41 0
0 0 0 0 0 0 0 0 0 0 0 0 -9 -99 -164 -104 -116 -56 -62 -76 -112 -155 -170 -155 -265 -342 -407 -432 -498 -541 -503 -441 -366 -307 -267 -265 -284 -314 -282 -199 -143 -76 -20 -14 -30 -84 -202 -61 0
0 0 0 0 0 0 0 0 0 0 0 0 0 0 0 0 -149 -47 -54 -61 -94 -130 -155 -139 -185 -196 -312 -325 -385 -482 -499 -428 -389 -381 -356 -371 -410 -427 -360 -267 -174 -94 -64 -53 -68 -109 -193 -253 0
0 0 0 0 0 0 0 0 0 0 0 0 0 0 0 0 -32 -100 -56 -33 -50 -89 -109 -100 -118 -139 -157 -172 -279 -348 -437 -425 -387 -388 -354 -350 -350 -330 -340 -267 -252 -129 -73 -54 -60 -86 -168 -229 0
0 0 0 0 0 0 0 0 0 0 0 0 0 0 0 0 -26 -191 -138 -68 -16 -33 -42 -52 -70 -84 -88 -70 -116 -233 -277 -327 -338 -324 -306 -392 0 -291 -232 -319 -58 -63 -33 -36 -47 -75 -131 -198 -355
0 0 0 0 0 0 0 0 0 0 0 0 0 0 0 0 0 0 -249 -187 -52 -11 -21 -14 -56 -59 -65 -78 -68 -105 -102 -170 -253 -240 -158 -238 -211 -182 -222 -160 -117 -73 -41 -35 -40 -50 -73 -150 -283
0 0 0 0 0 0 0 0 0 0 0 0 0 0 0 0 0 0 0 0 0 -29 -179 -58 -33 -51 -39 -64 -64 -68 -61 -47 -38 -52 -48 -46 -41 -67 -137 -157 -74 -91 -79 -59 -67 -14 -17 -103 -138
0 0 0 0 0 0 0 0 0 0 0 0 0 0 0 0 0 0 0 0 0 0 0 -135 -40 -42 -42 -27 -62 -48 -80 -47 -43 -35 -35 -28 -31 -26 -35 -33 -15 -13 -5 -30 -41 -52 -84 -59 -62
0 0 0 0 0 0 0 0 0 0 0 0 0 0 0 0 0 0 0 0 0 0 0 -298 -46 -32 -26 -26 -10 -18 -9 -31 -26 -13 -10 -16 -14 -12 -52 -80 -78 -56 -38 -39 -40 -16 -7 -18 -32
0 0 0 0 0 0 0 0 0 0 0 0 0 0 0 0 0 0 0 0 0 0 0 -307 -45 -41 -43 -6 -1 -1 -1 -1 -3 -2 0 -8 -1 -1 -1 -1 -1 -3 -19 -15 -2 -3 -6 -6 -9
0 0 0 0 0 0 0 0 0 0 0 0 0 0 0 0 0 0 0 0 0 0 0 -155 -39 -26 -21 -11 0 -1 -1 -1 -1 -6 -4 -1 -1 -2 0 -1 -1 -48 -32 -21 -19 -8 -4 -2 -9
0 0 0 0 0 0 0 0 0 0 0 0 0 0 0 0 0 0 0 0 0 0 0 -33 -24 -25 -12 -24 -8 -12 -1 -1 -1 -1 -2 0 -1 -1 -27 0 0 0 0 0 0 0 0 0 -3
0 0 0 0 0 0 0 0 0 0 0 0 0 0 0 0 0 0 0 0 0 0 0 0 -49 -29 -5 -14 -4 -1 -3 -1 -1 -1 -1 -33 -60 -99 -59 0 0 0 0 0 0 0 0 0 0
0 0 0 0 0 0 0 0 0 0 0 0 0 0 0 0 0 0 0 0 0 0 0 0 -57 -16 -12 -13 -9 -3 -1 -1 -35 -75 -98 -97 -13 0 0 0 0 0 0 0 0 0 0 0 0
0 0 0 0 0 0 0 0 0 0 0 0 0 0 0 0 0 0 0 0 0 0 0 -179 -71 -25 -16 -12 -8 -26 -75 -106 -106 -1 0 0 0 0 0 0 0 0 0 0 0 0 0 0 0
0 0 0 0 0 0 0 0 0 0 0 0 0 0 0 0 0 0 0 0 0 0 -166 -242 -202 -160 -120 -127 -124 -101 -107 -116 0 0 0 0 0 0 0 0 0 0 0 0 0 0 0 0 -2
0 0 0 0 0 0 0 0 0 0 0 0 0 0 0 0 0 0 0 0 0 0 0 -140 -290 -268 -240 -222 -204 -194 -180 -74 0 0 0 0 0 0 0 0 0 0 0 0 0 0 0 0 -77
0 0 0 0 0 0 0 0 0 0 0 0 0 0 0 0 0 0 0 0 0 0 0 0 -57 -54 -51 0 -35 -158 0 0 0 0 0 0 0 0 0 0 0 0 0 0 0 0 0 0 0
0 0 0 0 0 0 0 0 0 0 0 0 0 0 0 0 0 0 0 0 0 0 0 0 0 0 0 0 0 0 0 0 0 0 0 0 0 0 0 0 0 0 0 0 0 0 0 0 0
0 0 0 0 0 0 0 0 0 0 0 0 0 0 0 0 0 0 0 0 0 0 0 0 0 0 0 0 0 0 0 0 0 0 0 0 0 0 0 0 0 0 0 0 0 0 0 -1 -1
0 0 0 0 0 0 0 0 0 0 0 0 0 0 0 0 0 0 0 0 0 0 0 0 0 0 0 0 0 0 0 0 0 0 0 0 0 0 0 0 0 0 0 0 0 0 0 -2 -3
0 0 0 0 0 0 0 0 0 0 0 0 0 0 0 0 0 0 0 0 0 0 0 0 0 0 0 0 0 0 0 0 0 0 0 0 0 0 0 0 0 0 0 0 0 0 0 -1 -30
0 0 0 0 0 0 0 0 0 0 0 0 0 0 -2 -4 -1 0 0 0 0 0 0 0 0 0 0 0 0 0 0 0 0 0 0 0 0 0 0 0 0 0 0 0 0 0 0 0 -43
0 0 0 0 0 0 0 0 0 0 0 0 0 0 -6 -4 -9 -3 -2 0 0 0 0 0 0 0 0 0 0 0 0 0 0 0 0 0 0 0 0 0 0 -1 -1 -1 -1 0 0 0 -103
0 0 0 0 0 0 0 0 0 0 0 0 0 0 0 0 0 0 -2 -2 -5 -1 -3 0 0 0 0 0 0 0 0 0 0 0 0 0 0 0 0 0 -1 0 -1 -1 -1 -2 -1 -56 -49
0 0 0 0 0 0 0 0 0 0 -3 0 -4 -2 -3 0 0 0 0 0 0 0 -2 -2 -4 0 0 0 0 0 0 0 0 0 0 0 0 0 0 -1 -1 -1 -2 -1 -2 -2 -31 -2 -2
Wind_Speed
20 19 18 18 19 20 11 11 13 13 10 11 10 10 9 13 13 11 15 12 16 20 21 22 21 21 21 21 21 21 20 19 18 18 18 18 18 19 21 21 21 20 20 20 20 19 19 18 17
18 18 18 17 21 18 12 14 14 13 9 10 14 17 11 15 14 15 15 15 19 19 20 19 19 19 19 19 19 19 17 17 16 15 16 16 16 16 18 20 20 19 18 18 18 17 17 16 16
18 18 18 18 18 18 14 15 15 10 10 13 11 13 13 14 16 15 14 16 17 17 18 17 17 17 17 17 16 16 15 14 14 13 13 14 14 14 14 16 17 16 16 15 14 14 14 14 15
18 17 17 19 17 15 17 16 17 11 10 13 13 12 13 16 16 17 15 15 15 16 16 15 16 15 15 15 15 14 13 12 11 11 12 12 12 12 11 11 12 12 12 12 12 12 12 12 13
19 19 19 18 17 16 15 16 15 11 12 13 13 11 12 15 18 18 17 16 14 15 15 14 13 12 12 12 12 12 12 11 10 9 9 9 9 9 9 9 9 9 9 10 10 10 10 10 10
19 18 20 20 17 16 15 16 15 14 13 13 11 10 13 13 15 16 16 15 14 14 15 15 11 10 10 10 10 10 9 9 8 8 7 7 7 6 6 6 6 6 7 8 8 9 9 9 8
22 22 22 19 18 19 17 17 15 16 13 14 14 13 13 13 15 14 14 13 14 13 12 12 12 10 8 8 8 8 8 7 7 7 7 6 6 6 5 5 6 8 9 9 9 10 11 12 12
21 22 24 22 21 20 17 17 17 17 16 15 15 15 11 16 14 13 13 12 10 10 9 9 8 8 7 7 7 7 7 7 7 8 8 8 7 7 6 7 8 9 10 11 12 13 14 14 13
20 27 27 24 24 23 19 22 17 16 17 16 16 16 15 14 13 12 13 12 11 10 9 8 8 7 7 7 6 7 8 8 8 8 9 9 10 9 9 10 11 12 13 13 15 16 16 17 15
25 31 27 24 26 26 21 23 22 22 20 18 16 15 14 14 14 15 15 15 13 12 10 10 10 9 9 9 8 6 7 7 8 8 9 10 13 13 15 15 14 16 16 17 17 17 18 19 19
26 31 26 27 25 24 25 26 25 26 26 25 24 20 18 17 16 16 15 16 14 13 13 13 11 10 10 9 9 9 8 9 10 10 10 12 13 14 15 17 17 17 16 20 17 17 18 20 23
27 29 26 25 25 29 29 30 29 28 28 23 23 24 23 22 21 19 18 15 15 16 15 14 12 10 10 11 9 10 9 9 11 12 12 14 15 16 18 19 20 20 22 24 24 24 24 25 26
25 16 17 19 20 31 32 33 34 30 23 25 25 23 23 23 22 20 19 17 16 16 16 16 14 13 12 12 11 11 11 10 10 11 12 14 15 17 19 21 23 24 25 26 27 27 28 28 27
19 21 22 23 23 20 26 27 22 20 24 22 20 21 20 21 20 18 15 14 15 15 16 15 14 12 10 10 12 12 12 12 12 13 14 14 17 18 20 22 23 24 24 25 26 28 29 30 32
22 24 21 21 21 19 22 26 20 19 22 23 23 21 20 19 17 16 16 15 14 15 15 14 14 12 11 10 10 12 12 11 11 12 14 16 17 18 22 24 26 27 28 30 30 31 32 33 33
22 23 25 16 18 18 19 28 14 18 23 23 21 21 21 20 20 19 19 19 18 17 15 14 13 12 10 9 8 9 10 10 12 12 13 15 17 20 20 23 26 29 32 33 34 36 37 38 38
24 29 24 21 19 21 21 26 16 22 24 25 23 23 23 23 23 22 24 22 20 18 16 14 11 10 10 9 9 9 10 11 12 13 14 14 16 18 22 25 28 31 33 34 36 37 38 41 41
26 26 24 26 20 24 30 30 27 27 27 26 25 24 24 25 25 27 25 22 19 16 14 12 10 8 7 7 7 9 9 10 11 12 14 15 18 20 23 26 28 30 33 35 36 38 39 40 41
22 24 28 26 24 31 30 33 32 29 27 25 25 25 22 21 21 21 19 16 14 12 11 10 8 7 6 7 7 8 9 10 11 13 15 16 19 22 25 27 29 31 33 35 37 38 39 39 38
22 25 27 28 26 32 34 37 32 25 24 23 21 19 17 16 17 17 16 13 12 10 9 8 8 6 7 7 10 9 10 11 12 14 16 18 21 24 27 30 32 34 36 37 37 37 39 38 35
22 26 26 29 32 34 33 37 22 19 19 18 17 17 16 15 15 15 15 13 11 10 9 8 8 8 8 7 8 9 10 11 13 16 17 20 23 25 27 30 32 34 35 37 37 39 40 42 37
27 21 26 29 32 32 27 35 26 21 21 19 17 16 15 14 14 14 13 12 11 10 10 9 9 9 9 10 10 12 14 15 17 18 21 25 25 28 31 33 35 38 38 38 36 33 36 38 40
23 24 27 30 33 32 27 30 24 24 25 22 19 17 16 14 13 13 13 12 11 10 10 10 10 11 12 13 13 14 17 17 20 23 26 28 29 31 35 36 39 40 38 38 38 36 34 34 37
23 26 30 29 28 32 24 29 28 25 25 23 19 17 16 15 15 15 15 14 14 13 13 13 14 15 16 16 18 19 20 23 25 27 30 31 33 35 36 37 39 39 39 38 37 36 35 33 34
23 29 30 28 26 31 25 33 31 30 25 25 22 18 17 16 17 17 17 17 17 17 17 17 18 19 19 20 21 22 23 25 27 29 31 34 37 37 39 40 41 41 41 40 38 36 35 33 33
24 24 27 32 33 37 30 32 25 23 23 23 23 21 19 19 19 21 22 23 24 23 23 23 23 23 24 24 25 25 26 28 30 31 34 37 39 40 42 42 42 42 42 40 38 35 32 31 30
20 23 24 31 33 34 32 30 29 22 22 21 24 25 25 23 23 24 26 28 29 30 28 27 27 27 27 28 28 29 30 31 34 36 36 38 40 41 43 44 44 43 41 39 37 34 31 30 30
22 24 26 24 34 39 36 41 39 21 23 29 28 29 29 31 27 28 32 34 37 35 33 30 30 30 30 30 31 31 33 34 35 37 39 40 41 42 44 44 42 41 39 38 35 32 29 30 30
25 22 22 26 29 39 46 35 25 24 27 29 31 35 37 37 38 41 44 45 41 38 35 35 33 33 33 34 34 35 36 37 37 39 39 39 41 43 43 42 41 40 39 37 32 30 30 30 33
20 23 23 28 32 26 35 40 29 28 29 30 41 39 41 41 41 43 43 44 42 41 40 38 36 35 34 34 36 38 39 39 39 40 40 40 43 41 41 40 39 38 37 34 30 30 29 28 31
Wind_Direction
264 262 264 273 251 248 284 300 285 285 319 328 309 287 325 337 320 304 11 360 49 91 98 106 102 99 94 91 99 100 98 97 96 97 96 93 93 100 110 115 115 106 109 112 118 122 122 116 103
272 272 268 277 252 252 277 289 295 299 332 315 20 57 334 5 342 9 20 37 88 91 99 99 101 95 92 88 90 93 92 92 92 91 90 89 88 94 109 117 119 116 111 113 114 110 116 114 113
269 269 272 272 263 262 273 291 287 300 301 286 328 321 326 345 347 346 3 51 73 85 96 89 97 91 89 82 81 80 81 85 87 84 86 88 87 90 96 108 114 113 113 106 95 93 96 109 122
272 271 276 266 269 279 277 293 283 292 310 300 308 331 355 350 352 2 30 32 58 83 91 86 94 88 83 77 79 77 73 73 74 81 84 83 87 88 87 90 97 93 87 81 75 76 84 98 110
272 272 271 271 274 281 288 293 294 298 302 313 314 341 354 359 28 34 37 38 53 74 80 85 82 79 72 67 65 68 71 70 71 72 70 72 75 78 79 83 86 73 62 50 40 40 57 82 101
272 274 268 267 276 281 287 297 296 295 304 314 327 347 337 356 2 23 31 28 44 60 80 84 74 60 56 57 58 54 50 53 59 57 60 60 58 55 49 52 49 29 30 36 32 25 19 22 28
266 265 269 275 278 277 284 292 298 298 304 312 311 316 327 343 340 355 8 18 54 57 65 70 84 64 38 32 34 41 36 24 16 20 25 30 34 34 26 18 4 354 353 356 356 351 343 338 339
275 270 268 272 276 277 287 291 298 297 304 315 308 310 321 321 337 346 349 355 22 32 36 44 52 58 54 25 13 13 12 3 351 346 345 344 344 345 346 337 333 332 333 330 329 327 328 326 327
279 263 265 269 274 280 286 281 299 306 308 312 314 311 323 331 340 341 342 342 345 351 359 5 7 5 5 15 8 351 344 342 341 336 327 327 325 329 327 323 323 320 320 320 319 318 318 318 320
264 259 269 278 278 276 285 284 290 291 295 304 312 322 330 331 332 325 326 325 327 334 342 342 340 335 336 337 346 342 334 330 327 326 328 320 317 316 314 317 317 313 313 312 312 312 312 313 312
261 263 267 274 281 281 282 284 286 284 285 291 290 304 313 318 320 321 326 327 330 331 332 329 331 328 324 323 325 328 324 321 315 314 316 314 316 314 313 313 315 314 313 311 311 310 309 306 303
268 268 276 279 279 275 278 277 278 283 284 298 298 302 303 306 307 312 313 320 322 325 326 326 325 325 320 319 317 319 316 319 315 310 310 309 311 312 310 311 313 313 311 309 309 308 307 304 302
275 291 290 295 297 276 279 277 278 283 294 296 299 304 304 305 306 310 311 313 319 324 326 324 321 317 314 309 312 313 313 311 312 313 312 310 311 312 313 310 309 309 311 310 308 307 306 303 302
285 285 287 291 293 298 288 288 292 297 297 301 307 308 309 310 312 314 312 315 320 325 330 332 331 328 322 313 307 311 311 313 307 308 309 310 310 311 312 312 311 311 313 312 311 309 307 303 301
283 284 289 293 296 299 299 290 290 298 302 302 301 304 307 313 316 315 315 314 317 321 325 328 331 333 328 322 314 313 316 314 313 311 311 308 310 312 310 310 310 310 311 310 308 307 305 302 301
284 288 283 291 298 303 301 293 302 310 305 303 305 304 305 307 309 312 311 308 308 312 317 320 324 330 336 334 328 325 323 321 319 319 318 313 312 312 314 315 313 313 311 309 307 305 303 301 299
278 273 280 289 301 299 297 297 307 311 309 306 306 306 305 305 305 305 304 303 303 307 308 312 317 322 330 337 341 340 336 329 324 321 321 324 323 320 317 316 315 315 313 311 310 307 304 301 299
272 275 282 283 298 300 293 292 298 308 306 306 307 309 309 307 307 306 302 304 304 305 309 312 314 319 326 340 341 342 340 338 338 336 332 329 326 325 322 319 318 318 316 314 313 310 308 305 303
286 284 283 291 302 299 296 293 299 304 305 306 309 310 314 314 320 323 320 314 317 319 319 319 314 316 321 327 330 332 335 337 336 337 336 331 328 324 322 321 321 321 319 317 315 314 311 309 308
291 289 289 294 299 298 296 295 302 304 306 309 313 318 324 328 333 338 342 340 332 333 338 344 346 341 330 326 328 335 337 335 333 330 329 329 328 326 322 319 317 318 317 316 316 316 314 313 313
295 292 295 295 298 297 299 297 302 310 313 317 318 324 330 334 339 345 350 355 0 357 357 357 356 355 349 352 347 340 340 337 331 332 330 328 325 324 323 321 320 318 318 315 315 314 311 309 314
292 306 303 302 301 296 310 295 303 305 307 313 316 319 324 332 339 345 350 354 358 2 4 1 358 354 345 341 334 328 324 322 325 325 326 324 324 322 319 318 316 315 316 314 316 316 314 312 309
303 308 304 303 300 302 301 300 307 308 303 306 311 314 318 327 330 333 337 340 342 344 344 341 339 336 333 329 325 322 319 322 321 320 320 320 320 319 317 317 315 314 316 315 314 313 312 312 310
314 308 304 306 304 298 303 303 307 309 315 311 313 313 315 320 322 324 326 326 324 324 323 322 321 320 319 318 318 316 314 314 315 316 316 317 317 317 317 318 317 316 316 315 314 313 310 309 309
316 310 305 302 301 301 311 303 300 311 316 316 313 310 311 315 315 316 316 314 313 311 310 309 308 308 311 312 313 312 312 313 313 314 315 314 314 315 315 315 315 315 315 315 314 312 310 308 307
318 318 309 302 302 301 311 305 318 324 327 326 320 315 312 310 311 311 311 308 306 305 304 303 303 303 305 306 306 309 310 311 312 313 313 313 312 312 313 313 313 313 313 313 314 312 309 308 307
329 321 325 310 307 304 308 309 317 320 326 334 330 321 314 311 308 311 311 308 304 302 301 300 299 299 301 303 304 305 306 307 308 310 312 311 311 311 312 312 311 311 312 313 314 312 309 307 306
328 328 318 320 308 303 307 307 309 315 323 324 325 324 321 315 307 306 309 307 305 300 299 298 297 296 299 301 303 304 305 306 307 309 310 309 310 311 311 311 312 312 313 314 314 313 310 307 306
326 328 328 322 314 305 304 311 331 323 321 318 321 320 318 313 309 307 305 303 303 300 296 295 294 293 295 297 299 301 303 304 306 308 308 309 310 311 310 311 312 312 314 315 316 314 310 308 307
329 326 325 316 315 311 311 309 317 325 322 318 316 316 314 313 311 308 307 307 302 296 296 295 293 293 294 295 298 300 302 303 304 305 306 308 309 311 312 312 313 313 314 316 317 313 311 312 311